DW3201 Weather Reports


Display with metric or nautical units.
time (UTC)temp
F
wind
direction
speed
MPH
gust
MPH
rain 1hr
in
rain 24hr
in
rain mn
in
humidity
%
barometer
mb
20190921180459 74 201 3.0 8.0 0.04 0.04 0.04 18 1014.9
20190921175458 74 223 4.0 7.0 0.03 0.03 0.03 18 1014.9
20190921174457 75 208 2.0 7.0 0.01 0.01 0.01 18 1014.9
20190921173457 76 224 4.0 7.0 0.00 0.00 0.00 20 1014.9
20190921172455 76 226 3.0 14.0 0.00 0.00 0.00 22 1014.9
20190921171455 76 206 4.0 14.0 0.00 0.00 0.00 24 1014.9
20190921170454 77 190 4.0 13.0 0.00 0.00 0.00 25 1014.9
20190921165453 77 190 3.0 16.0 0.00 0.00 0.00 26 1015.2
20190921164452 77 230 5.0 17.0 0.00 0.00 0.00 27 1014.9
20190921163451 77 243 4.0 17.0 0.00 0.00 0.00 28 1014.9
20190921162450 78 216 3.0 12.0 0.00 0.00 0.00 30 1014.9
20190921161449 78 217 5.0 13.0 0.00 0.00 0.00 31 1014.6
20190921160448 78 235 3.0 19.0 0.00 0.00 0.00 31 1014.9
20190921155447 78 203 5.0 13.0 0.00 0.00 0.00 30 1014.9
20190921154447 77 199 5.0 11.0 0.00 0.00 0.00 26 1014.9
20190921153446 77 233 4.0 10.0 0.00 0.00 0.00 23 1014.9
20190921152445 77 182 3.0 10.0 0.00 0.00 0.00 25 1015.2
20190921151444 77 211 2.0 5.0 0.00 0.00 0.00 24 1015.2
20190921150443 77 211 4.0 11.0 0.00 0.00 0.00 24 1015.2
20190921145442 77 214 3.0 10.0 0.00 0.00 0.00 23 1015.2
20190921144441 77 219 3.0 11.0 0.00 0.00 0.00 23 1015.2
20190921143440 77 188 4.0 9.0 0.00 0.00 0.00 22 1015.2
20190921142439 77 192 5.0 13.0 0.00 0.00 0.00 22 1015.2